Location: Gro�bocka
(50.8204°N, 11.9702°E)
Time: 14:41:29
(UTC+00:00)

Cosmos 968 Rocket - Pass Details

Date: 29 October 2020
Orbit: 741 x 770 km, 74.0° (Epoch: 28 November)

Event Time Altitude Azimuth Distance (km) Brightness Sun altitude
Rises 16:34:35 0° 337° (NNW) 3,244 6.9 -7.3°
Reaches altitude 10° 16:37:03 10° 342° (NNW) 2,310 6.1 -7.7°
Maximum altitude 16:42:11 53° 60° (ENE) 929 3.6 -8.5°
Drops below altitude 10° 16:47:14 10° 138° (SE) 2,276 5.6 -9.3°
Sets 16:49:38 0° 143° (SE) 3,192 6.4 -9.7°
